Time,TemperatureF,DewpointF,PressureIn,WindDirection,WindDirectionDegrees,WindSpeedMPH,WindSpeedGustMPH,Humidity,HourlyPrecipIn,Conditions,Clouds,dailyrainin,SolarRadiationWatts/m^2,SoftwareType,DateUTC
2013-01-23 00:00:00,6.7,2.4,30.32,SW,225,2.0,5.0,82,0.00,,,-99.99,0,WeatherLink 6.0.0,2013-01-23 05:00:00,
2013-01-23 00:01:00,6.8,2.5,30.33,WSW,257,1.0,2.0,82,0.00,,,0.00,0,Wunderground v.1.15,2013-01-23 05:01:00,
2013-01-23 00:03:00,6.8,2.5,30.33,WSW,257,2.0,2.0,82,0.00,,,0.00,0,Wunderground v.1.15,2013-01-23 05:03:00,
2013-01-23 00:04:00,6.8,2.5,30.33,West,260,2.0,2.0,82,0.00,,,0.00,0,Wunderground v.1.15,2013-01-23 05:04:00,
2013-01-23 00:05:00,6.8,2.5,30.33,West,260,2.0,2.0,82,0.00,,,0.00,0,Wunderground v.1.15,2013-01-23 05:05:00,
2013-01-23 00:10:00,6.8,2.5,30.33,SSW,207,2.0,2.0,82,0.00,,,0.00,0,Wunderground v.1.15,2013-01-23 05:10:00,
2013-01-23 00:15:00,6.8,2.5,30.33,SW,214,3.0,3.0,82,0.00,,,0.00,0,Wunderground v.1.15,2013-01-23 05:15:00,
2013-01-23 00:21:00,6.7,2.4,30.33,South,179,3.0,3.0,82,0.00,,,0.00,0,Wunderground v.1.15,2013-01-23 05:21:00,
2013-01-23 00:27:00,6.7,2.4,30.33,WSW,238,1.0,3.0,82,0.00,,,0.00,0,Wunderground v.1.15,2013-01-23 05:27:00,
2013-01-23 00:30:00,6.5,2.2,30.33,West,270,2.0,6.0,82,0.00,,,-99.99,0,WeatherLink 6.0.0,2013-01-23 05:30:00,
2013-01-23 00:32:00,6.7,2.4,30.33,WSW,242,2.0,3.0,82,0.00,,,0.00,0,Wunderground v.1.15,2013-01-23 05:32:00,
2013-01-23 00:38:00,6.7,2.4,30.33,SW,226,1.0,5.0,82,0.00,,,0.00,0,Wunderground v.1.15,2013-01-23 05:38:00,
2013-01-23 00:43:00,6.7,2.4,30.33,SW,227,0.0,4.0,82,0.00,,,0.00,0,Wunderground v.1.15,2013-01-23 05:43:00,
2013-01-23 00:48:00,6.7,2.4,30.33,WSW,252,2.0,4.0,82,0.00,,,0.00,0,Wunderground v.1.15,2013-01-23 05:48:00,
2013-01-23 00:54:00,6.6,2.3,30.33,WSW,246,3.0,3.0,82,0.00,,,0.00,0,Wunderground v.1.15,2013-01-23 05:54:00,
2013-01-23 01:00:00,6.5,1.9,30.32,West,281,1.0,2.0,81,0.00,,,0.00,0,Wunderground v.1.15,2013-01-23 06:00:00,
2013-01-23 01:05:00,6.5,2.2,30.32,West,277,2.0,2.0,82,0.00,,,0.00,0,Wunderground v.1.15,2013-01-23 06:05:00,
2013-01-23 01:10:00,6.5,2.2,30.32,West,276,1.0,2.0,82,0.00,,,0.00,0,Wunderground v.1.15,2013-01-23 06:10:00,
2013-01-23 01:16:00,6.5,2.2,30.32,West,259,2.0,4.0,82,0.00,,,0.00,0,Wunderground v.1.15,2013-01-23 06:16:00,
2013-01-23 01:21:00,6.6,2.3,30.33,West,269,4.0,4.0,82,0.00,,,0.00,0,Wunderground v.1.15,2013-01-23 06:21:00,
2013-01-23 01:27:00,6.5,2.2,30.33,WSW,240,2.0,4.0,82,0.00,,,0.00,0,Wunderground v.1.15,2013-01-23 06:27:00,
2013-01-23 01:30:00,6.3,2.0,30.33,WSW,247,2.0,6.0,82,0.00,,,-99.99,0,WeatherLink 6.0.0,2013-01-23 06:30:00,
2013-01-23 01:32:00,6.4,2.1,30.33,WSW,239,3.0,3.0,82,0.00,,,0.00,0,Wunderground v.1.15,2013-01-23 06:32:00,
2013-01-23 01:38:00,6.3,2.0,30.32,West,267,3.0,4.0,82,0.00,,,0.00,0,Wunderground v.1.15,2013-01-23 06:38:00,
2013-01-23 01:43:00,6.3,2.0,30.33,SW,231,2.0,3.0,82,0.00,,,0.00,0,Wunderground v.1.15,2013-01-23 06:43:00,
2013-01-23 01:49:00,6.3,2.0,30.33,West,259,2.0,3.0,82,0.00,,,0.00,0,Wunderground v.1.15,2013-01-23 06:49:00,
2013-01-23 01:54:00,6.3,2.0,30.33,WNW,284,0.0,2.0,82,0.00,,,0.00,0,Wunderground v.1.15,2013-01-23 06:54:00,
2013-01-23 02:00:00,6.3,2.0,30.33,WNW,284,1.0,1.0,82,0.00,,,0.00,0,Wunderground v.1.15,2013-01-23 07:00:00,
2013-01-23 02:05:00,6.3,2.0,30.33,SW,229,5.0,5.0,82,0.00,,,0.00,0,Wunderground v.1.15,2013-01-23 07:05:00,
2013-01-23 02:11:00,6.3,2.0,30.32,West,270,4.0,4.0,82,0.00,,,0.00,0,Wunderground v.1.15,2013-01-23 07:11:00,
2013-01-23 02:16:00,6.3,2.0,30.32,WSW,248,2.0,5.0,82,0.00,,,0.00,0,Wunderground v.1.15,2013-01-23 07:16:00,
2013-01-23 02:21:00,6.3,2.0,30.32,WSW,257,1.0,2.0,82,0.00,,,0.00,0,Wunderground v.1.15,2013-01-23 07:21:00,
2013-01-23 02:26:00,6.2,1.9,30.32,South,182,5.0,6.0,82,0.00,,,0.00,0,Wunderground v.1.15,2013-01-23 07:26:00,
2013-01-23 02:30:00,6.1,1.8,30.33,WSW,247,1.0,4.0,82,0.00,,,-99.99,0,WeatherLink 6.0.0,2013-01-23 07:30:00,
2013-01-23 02:31:00,6.2,1.9,30.33,WSW,253,2.0,4.0,82,0.00,,,0.00,0,Wunderground v.1.15,2013-01-23 07:31:00,
2013-01-23 02:36:00,6.2,1.9,30.33,WSW,240,3.0,6.0,82,0.00,,,0.00,0,Wunderground v.1.15,2013-01-23 07:36:00,
2013-01-23 02:41:00,6.2,1.9,30.33,West,271,1.0,4.0,82,0.00,,,0.00,0,Wunderground v.1.15,2013-01-23 07:41:00,
2013-01-23 02:46:00,6.2,1.9,30.33,WNW,284,0.0,4.0,82,0.00,,,0.00,0,Wunderground v.1.15,2013-01-23 07:46:00,
2013-01-23 02:51:00,6.2,1.9,30.33,West,260,1.0,3.0,82,0.00,,,0.00,0,Wunderground v.1.15,2013-01-23 07:51:00,
2013-01-23 02:56:00,6.2,1.9,30.33,West,260,0.0,4.0,82,0.00,,,0.00,0,Wunderground v.1.15,2013-01-23 07:56:00,
2013-01-23 03:00:00,6.1,1.5,30.32,West,270,1.0,5.0,81,0.00,,,-99.99,0,WeatherLink 6.0.0,2013-01-23 08:00:00,
2013-01-23 03:01:00,6.1,1.8,30.33,West,260,0.0,1.0,82,0.00,,,0.00,0,Wunderground v.1.15,2013-01-23 08:01:00,
2013-01-23 03:06:00,6.2,1.9,30.33,West,266,0.0,4.0,82,0.00,,,0.00,0,Wunderground v.1.15,2013-01-23 08:06:00,
2013-01-23 03:11:00,6.1,1.8,30.33,West,269,1.0,2.0,82,0.00,,,0.00,0,Wunderground v.1.15,2013-01-23 08:11:00,
2013-01-23 03:16:00,6.1,1.8,30.33,WSW,256,1.0,4.0,82,0.00,,,0.00,0,Wunderground v.1.15,2013-01-23 08:16:00,
2013-01-23 03:21:00,6.1,1.8,30.33,WSW,244,2.0,2.0,82,0.00,,,0.00,0,Wunderground v.1.15,2013-01-23 08:21:00,
2013-01-23 03:26:00,6.0,1.7,30.33,WSW,246,1.0,4.0,82,0.00,,,0.00,0,Wunderground v.1.15,2013-01-23 08:26:00,
2013-01-23 03:30:00,5.8,1.2,30.33,West,270,1.0,4.0,81,0.00,,,-99.99,0,WeatherLink 6.0.0,2013-01-23 08:30:00,
2013-01-23 03:31:00,6.1,1.8,30.33,WSW,252,0.0,3.0,82,0.00,,,0.00,0,Wunderground v.1.15,2013-01-23 08:31:00,
2013-01-23 03:36:00,6.1,1.8,30.33,WSW,247,0.0,4.0,82,0.00,,,0.00,0,Wunderground v.1.15,2013-01-23 08:36:00,
2013-01-23 03:41:00,6.1,1.8,30.33,West,269,3.0,3.0,82,0.00,,,0.00,0,Wunderground v.1.15,2013-01-23 08:41:00,
2013-01-23 03:47:00,6.0,1.4,30.32,West,275,1.0,4.0,81,0.00,,,0.00,0,Wunderground v.1.15,2013-01-23 08:47:00,
2013-01-23 03:52:00,6.1,1.5,30.32,SW,215,2.0,2.0,81,0.00,,,0.00,0,Wunderground v.1.15,2013-01-23 08:52:00,
2013-01-23 03:57:00,6.0,1.4,30.32,WSW,254,0.0,3.0,81,0.00,,,0.00,0,Wunderground v.1.15,2013-01-23 08:57:00,
2013-01-23 04:00:00,5.6,1.0,30.32,West,270,1.0,4.0,81,0.00,,,-99.99,0,WeatherLink 6.0.0,2013-01-23 09:00:00,
2013-01-23 04:02:00,6.0,1.4,30.32,WSW,250,3.0,4.0,81,0.00,,,0.00,0,Wunderground v.1.15,2013-01-23 09:02:00,
2013-01-23 04:07:00,5.9,1.3,30.32,WSW,240,0.0,4.0,81,0.00,,,0.00,0,Wunderground v.1.15,2013-01-23 09:07:00,
2013-01-23 04:12:00,5.8,1.2,30.33,WSW,246,3.0,3.0,81,0.00,,,0.00,0,Wunderground v.1.15,2013-01-23 09:12:00,
2013-01-23 04:17:00,5.8,1.2,30.33,West,261,2.0,4.0,81,0.00,,,0.00,0,Wunderground v.1.15,2013-01-23 09:17:00,
2013-01-23 04:22:00,5.8,1.0,30.33,West,264,2.0,4.0,80,0.00,,,0.00,0,Wunderground v.1.15,2013-01-23 09:22:00,
2013-01-23 04:27:00,5.8,1.2,30.33,West,259,0.0,4.0,81,0.00,,,0.00,0,Wunderground v.1.15,2013-01-23 09:27:00,
2013-01-23 04:30:00,5.0,0.7,30.32,West,270,0.0,3.0,82,0.00,,,-99.99,0,WeatherLink 6.0.0,2013-01-23 09:30:00,
2013-01-23 04:32:00,5.8,1.2,30.33,West,271,1.0,2.0,81,0.00,,,0.00,0,Wunderground v.1.15,2013-01-23 09:32:00,
2013-01-23 04:37:00,5.7,1.1,30.33,WSW,240,1.0,3.0,81,0.00,,,0.00,0,Wunderground v.1.15,2013-01-23 09:37:00,
2013-01-23 04:42:00,5.6,1.0,30.32,WSW,240,1.0,1.0,81,0.00,,,0.00,0,Wunderground v.1.15,2013-01-23 09:42:00,
2013-01-23 04:47:00,5.6,1.0,30.33,West,259,2.0,3.0,81,0.00,,,0.00,0,Wunderground v.1.15,2013-01-23 09:47:00,
2013-01-23 04:52:00,5.5,0.9,30.32,West,259,0.0,3.0,81,0.00,,,0.00,0,Wunderground v.1.15,2013-01-23 09:52:00,
2013-01-23 04:58:00,5.4,0.8,30.32,West,278,0.0,4.0,81,0.00,,,0.00,0,Wunderground v.1.15,2013-01-23 09:58:00,
2013-01-23 05:00:00,4.3,0.3,30.32,West,270,0.0,2.0,83,0.00,,,-99.99,0,WeatherLink 6.0.0,2013-01-23 10:00:00,
2013-01-23 05:03:00,5.3,0.7,30.32,West,278,0.0,2.0,81,0.00,,,0.00,0,Wunderground v.1.15,2013-01-23 10:03:00,
2013-01-23 05:08:00,5.2,0.6,30.32,West,278,1.0,2.0,81,0.00,,,0.00,0,Wunderground v.1.15,2013-01-23 10:08:00,
2013-01-23 05:13:00,5.1,0.5,30.32,West,278,0.0,1.0,81,0.00,,,0.00,0,Wunderground v.1.15,2013-01-23 10:13:00,
2013-01-23 05:18:00,4.9,0.3,30.32,West,278,0.0,1.0,81,0.00,,,0.00,0,Wunderground v.1.15,2013-01-23 10:18:00,
2013-01-23 05:23:00,4.7,0.2,30.32,West,278,0.0,1.0,81,0.00,,,0.00,0,Wunderground v.1.15,2013-01-23 10:23:00,
2013-01-23 05:28:00,4.6,0.3,30.32,West,278,0.0,2.0,82,0.00,,,0.00,0,Wunderground v.1.15,2013-01-23 10:28:00,
2013-01-23 05:30:00,3.8,-0.2,30.31,West,270,0.0,1.0,83,0.00,,,-99.99,0,WeatherLink 6.0.0,2013-01-23 10:30:00,
2013-01-23 05:33:00,4.5,0.2,30.32,West,278,0.0,1.0,82,0.00,,,0.00,0,Wunderground v.1.15,2013-01-23 10:33:00,
2013-01-23 05:38:00,4.4,0.1,30.32,West,278,1.0,1.0,82,0.00,,,0.00,0,Wunderground v.1.15,2013-01-23 10:38:00,
2013-01-23 05:43:00,4.3,0.0,30.32,West,264,0.0,2.0,82,0.00,,,0.00,0,Wunderground v.1.15,2013-01-23 10:43:00,
2013-01-23 05:48:00,4.2,0.2,30.31,West,264,0.0,2.0,83,0.00,,,0.00,0,Wunderground v.1.15,2013-01-23 10:48:00,
2013-01-23 05:53:00,4.2,0.2,30.32,West,264,0.0,0.0,83,0.00,,,0.00,0,Wunderground v.1.15,2013-01-23 10:53:00,
2013-01-23 05:58:00,4.1,0.1,30.32,West,264,0.0,1.0,83,0.00,,,0.00,0,Wunderground v.1.15,2013-01-23 10:58:00,
2013-01-23 06:00:00,3.6,-0.2,30.31,West,270,0.0,2.0,84,0.00,,,-99.99,0,WeatherLink 6.0.0,2013-01-23 11:00:00,
2013-01-23 06:03:00,4.1,0.1,30.32,West,264,0.0,0.0,83,0.00,,,0.00,0,Wunderground v.1.15,2013-01-23 11:03:00,
2013-01-23 06:08:00,4.0,0.0,30.31,West,264,0.0,0.0,83,0.00,,,0.00,0,Wunderground v.1.15,2013-01-23 11:08:00,
2013-01-23 06:13:00,3.9,-0.1,30.31,West,264,0.0,0.0,83,0.00,,,0.00,0,Wunderground v.1.15,2013-01-23 11:13:00,
2013-01-23 06:18:00,3.7,-0.3,30.31,West,264,0.0,0.0,83,0.00,,,0.00,0,Wunderground v.1.15,2013-01-23 11:18:00,
2013-01-23 06:23:00,3.6,-0.4,30.31,West,264,0.0,0.0,83,0.00,,,0.00,0,Wunderground v.1.15,2013-01-23 11:23:00,
2013-01-23 06:29:00,3.5,-0.5,30.31,West,264,0.0,1.0,83,0.00,,,0.00,0,Wunderground v.1.15,2013-01-23 11:29:00,
2013-01-23 06:30:00,4.1,0.1,30.31,SW,225,1.0,4.0,83,0.00,,,-99.99,0,WeatherLink 6.0.0,2013-01-23 11:30:00,
2013-01-23 06:34:00,3.5,-0.2,30.31,West,264,0.0,0.0,84,0.00,,,0.00,0,Wunderground v.1.15,2013-01-23 11:34:00,
2013-01-23 06:39:00,3.5,-0.2,30.31,West,264,0.0,0.0,84,0.00,,,0.00,0,Wunderground v.1.15,2013-01-23 11:39:00,
2013-01-23 06:44:00,3.5,-0.2,30.31,West,264,0.0,0.0,84,0.00,,,0.00,0,Wunderground v.1.15,2013-01-23 11:44:00,
2013-01-23 06:49:00,3.6,-0.2,30.31,West,264,0.0,1.0,84,0.00,,,0.00,0,Wunderground v.1.15,2013-01-23 11:49:00,
2013-01-23 06:54:00,3.8,0.0,30.31,West,264,1.0,1.0,84,0.00,,,0.00,0,Wunderground v.1.15,2013-01-23 11:54:00,
2013-01-23 06:59:00,4.0,0.2,30.31,West,264,0.0,2.0,84,0.00,,,0.00,0,Wunderground v.1.15,2013-01-23 11:59:00,
2013-01-23 07:00:00,4.8,0.2,30.31,SSW,202,2.0,8.0,81,0.00,,,-99.99,0,WeatherLink 6.0.0,2013-01-23 12:00:00,
2013-01-23 07:04:00,4.0,0.2,30.30,West,264,0.0,0.0,84,0.00,,,0.00,0,Wunderground v.1.15,2013-01-23 12:04:00,
2013-01-23 07:09:00,4.0,0.2,30.31,West,264,2.0,3.0,84,0.00,,,0.00,0,Wunderground v.1.15,2013-01-23 12:09:00,
2013-01-23 07:14:00,4.1,0.3,30.31,SW,219,2.0,3.0,84,0.00,,,0.00,0,Wunderground v.1.15,2013-01-23 12:14:00,
2013-01-23 07:19:00,4.2,0.4,30.31,SW,219,1.0,3.0,84,0.00,,,0.00,0,Wunderground v.1.15,2013-01-23 12:19:00,
2013-01-23 07:24:00,4.3,0.3,30.31,SW,219,2.0,3.0,83,0.00,,,0.00,0,Wunderground v.1.15,2013-01-23 12:24:00,
2013-01-23 07:29:00,4.4,0.4,30.31,SW,219,2.0,4.0,83,0.00,,,0.00,0,Wunderground v.1.15,2013-01-23 12:29:00,
2013-01-23 07:30:00,5.1,0.5,30.30,South,180,2.0,8.0,81,0.00,,,-99.99,13,WeatherLink 6.0.0,2013-01-23 12:30:00,
2013-01-23 07:34:00,4.6,0.6,30.31,SW,219,0.0,3.0,83,0.00,,,0.00,0,Wunderground v.1.15,2013-01-23 12:34:00,
2013-01-23 07:39:00,4.7,0.7,30.31,SW,219,0.0,3.0,83,0.00,,,0.00,0,Wunderground v.1.15,2013-01-23 12:39:00,
2013-01-23 07:44:00,4.8,0.8,30.31,SW,219,4.0,4.0,83,0.00,,,0.00,0,Wunderground v.1.15,2013-01-23 12:44:00,
2013-01-23 07:49:00,5.0,0.7,30.30,SSW,199,1.0,5.0,82,0.00,,,0.00,0,Wunderground v.1.15,2013-01-23 12:49:00,
2013-01-23 07:54:00,5.0,0.4,30.30,SSW,200,4.0,4.0,81,0.00,,,0.00,0,Wunderground v.1.15,2013-01-23 12:54:00,
2013-01-23 07:59:00,4.9,0.3,30.30,SSW,194,3.0,5.0,81,0.00,,,0.00,0,Wunderground v.1.15,2013-01-23 12:59:00,
2013-01-23 08:00:00,5.9,0.0,30.30,SSW,202,2.0,7.0,76,0.00,,,-99.99,34,WeatherLink 6.0.0,2013-01-23 13:00:00,
2013-01-23 08:04:00,4.9,0.3,30.31,South,173,2.0,8.0,81,0.00,,,0.00,5,Wunderground v.1.15,2013-01-23 13:04:00,
2013-01-23 08:09:00,4.9,0.3,30.30,South,177,2.0,8.0,81,0.00,,,0.00,5,Wunderground v.1.15,2013-01-23 13:09:00,
2013-01-23 08:14:00,5.0,0.7,30.31,South,181,2.0,4.0,82,0.00,,,0.00,9,Wunderground v.1.15,2013-01-23 13:14:00,
2013-01-23 08:19:00,5.1,0.5,30.30,SSW,199,0.0,6.0,81,0.00,,,0.00,14,Wunderground v.1.15,2013-01-23 13:19:00,
2013-01-23 08:24:00,5.2,0.6,30.30,SSW,209,1.0,4.0,81,0.00,,,0.00,21,Wunderground v.1.15,2013-01-23 13:24:00,
2013-01-23 08:29:00,5.4,0.8,30.30,South,189,3.0,5.0,81,0.00,,,0.00,26,Wunderground v.1.15,2013-01-23 13:29:00,
2013-01-23 08:30:00,7.1,0.6,30.29,SSW,202,3.0,9.0,74,0.00,,,-99.99,77,WeatherLink 6.0.0,2013-01-23 13:30:00,
2013-01-23 08:34:00,5.6,0.8,30.30,South,188,1.0,3.0,80,0.00,,,0.00,26,Wunderground v.1.15,2013-01-23 13:34:00,
2013-01-23 08:39:00,5.7,0.6,30.30,South,188,1.0,4.0,79,0.00,,,0.00,23,Wunderground v.1.15,2013-01-23 13:39:00,
2013-01-23 08:44:00,5.9,0.8,30.30,SSW,194,1.0,4.0,79,0.00,,,0.00,26,Wunderground v.1.15,2013-01-23 13:44:00,
2013-01-23 08:49:00,6.0,0.6,30.30,SSW,192,1.0,6.0,78,0.00,,,0.00,40,Wunderground v.1.15,2013-01-23 13:49:00,
2013-01-23 08:54:00,6.2,0.5,30.30,SSW,194,3.0,5.0,77,0.00,,,0.00,46,Wunderground v.1.15,2013-01-23 13:54:00,
2013-01-23 08:59:00,6.4,0.4,30.30,SSW,196,2.0,7.0,76,0.00,,,0.00,49,Wunderground v.1.15,2013-01-23 13:59:00,
2013-01-23 09:00:00,8.3,1.4,30.29,SSW,202,3.0,9.0,73,0.00,,,-99.99,131,WeatherLink 6.0.0,2013-01-23 14:00:00,
2013-01-23 09:04:00,6.6,0.4,30.30,SSW,212,3.0,7.0,75,0.00,,,0.00,62,Wunderground v.1.15,2013-01-23 14:04:00,
2013-01-23 09:09:00,6.8,0.6,30.30,SSW,194,3.0,7.0,75,0.00,,,0.00,67,Wunderground v.1.15,2013-01-23 14:09:00,
2013-01-23 09:14:00,7.0,0.7,30.30,South,184,3.0,7.0,75,0.00,,,0.00,81,Wunderground v.1.15,2013-01-23 14:14:00,
2013-01-23 09:19:00,7.3,1.0,30.30,SW,220,0.0,7.0,75,0.00,,,0.00,88,Wunderground v.1.15,2013-01-23 14:19:00,
2013-01-23 09:24:00,7.6,1.3,30.29,South,188,3.0,7.0,75,0.00,,,0.00,90,Wunderground v.1.15,2013-01-23 14:24:00,
2013-01-23 09:29:00,7.7,1.1,30.29,SSW,193,2.0,8.0,74,0.00,,,0.00,90,Wunderground v.1.15,2013-01-23 14:29:00,
2013-01-23 09:30:00,9.7,3.1,30.28,SSW,202,4.0,10.0,74,0.00,,,-99.99,185,WeatherLink 6.0.0,2013-01-23 14:30:00,
2013-01-23 09:34:00,7.9,1.3,30.30,South,183,6.0,7.0,74,0.00,,,0.00,104,Wunderground v.1.15,2013-01-23 14:34:00,
2013-01-23 09:39:00,7.9,1.3,30.29,SSW,207,3.0,7.0,74,0.00,,,0.00,109,Wunderground v.1.15,2013-01-23 14:39:00,
2013-01-23 09:44:00,8.1,1.2,30.29,South,190,4.0,9.0,73,0.00,,,0.00,149,Wunderground v.1.15,2013-01-23 14:44:00,
2013-01-23 09:49:00,8.5,1.6,30.29,SW,214,5.0,9.0,73,0.00,,,0.00,141,Wunderground v.1.15,2013-01-23 14:49:00,
2013-01-23 09:54:00,8.8,1.9,30.29,South,180,3.0,7.0,73,0.00,,,0.00,139,Wunderground v.1.15,2013-01-23 14:54:00,
2013-01-23 09:59:00,9.0,2.1,30.29,SSE,148,3.0,7.0,73,0.00,,,0.00,141,Wunderground v.1.15,2013-01-23 14:59:00,
2013-01-23 10:00:00,10.9,4.5,30.28,SSW,202,5.0,14.0,75,0.00,,,-99.99,231,WeatherLink 6.0.0,2013-01-23 15:00:00,
2013-01-23 10:04:00,9.1,2.2,30.29,South,179,7.0,8.0,73,0.00,,,0.00,121,Wunderground v.1.15,2013-01-23 15:04:00,
2013-01-23 10:09:00,9.1,2.2,30.29,SSW,212,3.0,8.0,73,0.00,,,0.00,139,Wunderground v.1.15,2013-01-23 15:09:00,
2013-01-23 10:14:00,9.6,3.0,30.29,WSW,239,4.0,8.0,74,0.00,,,0.00,171,Wunderground v.1.15,2013-01-23 15:14:00,
2013-01-23 10:19:00,10.1,3.8,30.29,South,179,4.0,10.0,75,0.00,,,0.00,234,Wunderground v.1.15,2013-01-23 15:19:00,
2013-01-23 10:24:00,10.2,3.6,30.29,SW,227,7.0,9.0,74,0.00,,,0.00,188,Wunderground v.1.15,2013-01-23 15:24:00,
2013-01-23 10:29:00,10.5,3.8,30.28,SSW,200,4.0,9.0,74,0.00,,,0.00,244,Wunderground v.1.15,2013-01-23 15:29:00,
2013-01-23 10:30:00,11.9,4.9,30.27,SSW,202,4.0,11.0,73,0.00,,,-99.99,263,WeatherLink 6.0.0,2013-01-23 15:30:00,
2013-01-23 10:34:00,11.3,4.6,30.28,SSW,201,7.0,8.0,74,0.00,,,0.00,322,Wunderground v.1.15,2013-01-23 15:34:00,
2013-01-23 10:39:00,11.2,4.2,30.28,SSW,193,4.0,12.0,73,0.00,,,0.00,274,Wunderground v.1.15,2013-01-23 15:39:00,
2013-01-23 10:44:00,11.0,4.0,30.28,SSE,165,11.0,12.0,73,0.00,,,0.00,216,Wunderground v.1.15,2013-01-23 15:44:00,
2013-01-23 10:49:00,10.6,3.9,30.29,SSW,207,4.0,14.0,74,0.00,,,0.00,188,Wunderground v.1.15,2013-01-23 15:49:00,
2013-01-23 10:54:00,10.6,3.9,30.29,SSW,200,2.0,10.0,74,0.00,,,0.00,190,Wunderground v.1.15,2013-01-23 15:54:00,
2013-01-23 10:59:00,10.8,4.4,30.28,SSW,207,4.0,10.0,75,0.00,,,0.00,225,Wunderground v.1.15,2013-01-23 15:59:00,
2013-01-23 11:00:00,12.9,6.2,30.26,SSW,202,4.0,10.0,74,0.00,,,-99.99,283,WeatherLink 6.0.0,2013-01-23 16:00:00,
2013-01-23 11:04:00,11.0,4.6,30.28,SSW,194,5.0,11.0,75,0.00,,,0.00,230,Wunderground v.1.15,2013-01-23 16:04:00,
2013-01-23 11:09:00,11.4,5.0,30.28,South,178,7.0,11.0,75,0.00,,,0.00,264,Wunderground v.1.15,2013-01-23 16:09:00,
2013-01-23 11:14:00,11.9,5.5,30.28,SW,214,3.0,9.0,75,0.00,,,0.00,302,Wunderground v.1.15,2013-01-23 16:14:00,
2013-01-23 11:19:00,12.2,5.5,30.28,South,188,4.0,9.0,74,0.00,,,0.00,265,Wunderground v.1.15,2013-01-23 16:19:00,
2013-01-23 11:24:00,12.5,5.8,30.27,SW,223,3.0,9.0,74,0.00,,,0.00,237,Wunderground v.1.15,2013-01-23 16:24:00,
2013-01-23 11:29:00,12.8,5.8,30.27,SSW,207,3.0,9.0,73,0.00,,,0.00,230,Wunderground v.1.15,2013-01-23 16:29:00,
2013-01-23 11:30:00,13.1,6.7,30.24,SSW,202,5.0,12.0,75,0.00,,,-99.99,273,WeatherLink 6.0.0,2013-01-23 16:30:00,
2013-01-23 11:34:00,12.7,5.7,30.27,SSW,201,7.0,8.0,73,0.00,,,0.00,267,Wunderground v.1.15,2013-01-23 16:34:00,
2013-01-23 11:39:00,13.0,6.0,30.27,South,188,2.0,10.0,73,0.00,,,0.00,332,Wunderground v.1.15,2013-01-23 16:39:00,
2013-01-23 11:44:00,13.1,5.8,30.27,SSW,202,2.0,10.0,72,0.00,,,0.00,265,Wunderground v.1.15,2013-01-23 16:44:00,
2013-01-23 11:49:00,12.8,5.8,30.26,South,175,3.0,10.0,73,0.00,,,0.00,292,Wunderground v.1.15,2013-01-23 16:49:00,
2013-01-23 11:54:00,12.9,5.9,30.26,South,172,6.0,9.0,73,0.00,,,0.00,290,Wunderground v.1.15,2013-01-23 16:54:00,
2013-01-23 11:59:00,12.8,6.1,30.26,SSW,198,2.0,9.0,74,0.00,,,0.00,274,Wunderground v.1.15,2013-01-23 16:59:00,
2013-01-23 12:00:00,14.6,7.5,30.21,SSW,202,4.0,12.0,73,0.00,,,-99.99,253,WeatherLink 6.0.0,2013-01-23 17:00:00,
2013-01-23 12:04:00,12.6,5.9,30.25,SW,225,5.0,12.0,74,0.00,,,0.00,267,Wunderground v.1.15,2013-01-23 17:04:00,
2013-01-23 12:09:00,12.9,6.5,30.25,South,176,2.0,12.0,75,0.00,,,0.00,257,Wunderground v.1.15,2013-01-23 17:09:00,
2013-01-23 12:14:00,12.9,6.5,30.25,South,190,9.0,11.0,75,0.00,,,0.00,281,Wunderground v.1.15,2013-01-23 17:14:00,
2013-01-23 12:19:00,13.2,6.8,30.24,South,177,2.0,11.0,75,0.00,,,0.00,288,Wunderground v.1.15,2013-01-23 17:19:00,
2013-01-23 12:24:00,13.4,7.0,30.24,SW,221,5.0,10.0,75,0.00,,,0.00,285,Wunderground v.1.15,2013-01-23 17:24:00,
2013-01-23 12:29:00,13.8,7.3,30.24,South,186,9.0,10.0,75,0.00,,,0.00,285,Wunderground v.1.15,2013-01-23 17:29:00,
2013-01-23 12:30:00,16.0,7.6,30.19,SSW,202,5.0,13.0,69,0.00,,,-99.99,248,WeatherLink 6.0.0,2013-01-23 17:30:00,
2013-01-23 12:34:00,13.9,7.1,30.23,SSW,199,10.0,10.0,74,0.00,,,0.00,283,Wunderground v.1.15,2013-01-23 17:34:00,
2013-01-23 12:39:00,14.1,7.6,30.23,SSW,202,1.0,12.0,75,0.00,,,0.00,258,Wunderground v.1.15,2013-01-23 17:39:00,
2013-01-23 12:44:00,14.4,7.6,30.22,SW,219,2.0,9.0,74,0.00,,,0.00,267,Wunderground v.1.15,2013-01-23 17:44:00,
2013-01-23 12:49:00,14.8,8.3,30.22,SW,217,3.0,9.0,75,0.00,,,0.00,262,Wunderground v.1.15,2013-01-23 17:49:00,
2013-01-23 12:54:00,15.3,8.5,30.21,SW,229,2.0,8.0,74,0.00,,,0.00,218,Wunderground v.1.15,2013-01-23 17:54:00,
2013-01-23 12:59:00,15.5,8.4,30.21,SSW,205,2.0,10.0,73,0.00,,,0.00,220,Wunderground v.1.15,2013-01-23 17:59:00,
2013-01-23 13:00:00,16.8,8.1,30.18,SW,225,4.0,12.0,68,0.00,,,-99.99,226,WeatherLink 6.0.0,2013-01-23 18:00:00,
2013-01-23 13:04:00,15.8,8.4,30.21,SW,236,4.0,6.0,72,0.00,,,0.00,253,Wunderground v.1.15,2013-01-23 18:04:00,
2013-01-23 13:09:00,15.9,8.2,30.21,SW,225,7.0,10.0,71,0.00,,,0.00,239,Wunderground v.1.15,2013-01-23 18:09:00,
2013-01-23 13:14:00,16.1,8.3,30.20,SSW,205,8.0,10.0,71,0.00,,,0.00,272,Wunderground v.1.15,2013-01-23 18:14:00,
2013-01-23 13:19:00,16.1,8.0,30.20,WSW,247,9.0,11.0,70,0.00,,,0.00,250,Wunderground v.1.15,2013-01-23 18:19:00,
2013-01-23 13:24:00,16.2,8.1,30.19,SSW,198,6.0,12.0,70,0.00,,,0.00,255,Wunderground v.1.15,2013-01-23 18:24:00,
2013-01-23 13:29:00,16.1,7.4,30.19,SSW,207,6.0,12.0,68,0.00,,,0.00,244,Wunderground v.1.15,2013-01-23 18:29:00,
2013-01-23 13:30:00,17.1,8.0,30.17,SSW,202,4.0,10.0,67,0.00,,,-99.99,193,WeatherLink 6.0.0,2013-01-23 18:30:00,
2013-01-23 13:34:00,16.4,8.6,30.19,WSW,245,2.0,8.0,71,0.00,,,0.00,274,Wunderground v.1.15,2013-01-23 18:34:00,
2013-01-23 13:39:00,16.8,8.7,30.19,SSW,204,6.0,9.0,70,0.00,,,0.00,236,Wunderground v.1.15,2013-01-23 18:39:00,
2013-01-23 13:44:00,16.7,8.3,30.18,South,186,4.0,9.0,69,0.00,,,0.00,211,Wunderground v.1.15,2013-01-23 18:44:00,
2013-01-23 13:50:00,17.0,8.9,30.18,SSW,200,2.0,4.0,70,0.00,,,0.00,213,Wunderground v.1.15,2013-01-23 18:50:00,
2013-01-23 13:55:00,17.1,8.7,30.18,SW,218,5.0,12.0,69,0.00,,,0.00,204,Wunderground v.1.15,2013-01-23 18:55:00,
2013-01-23 14:00:00,16.9,8.2,30.18,SW,226,3.0,5.0,68,0.00,,,0.00,202,Wunderground v.1.15,2013-01-23 19:00:00,
2013-01-23 14:05:00,17.1,8.7,30.18,SSW,202,5.0,8.0,69,0.00,,,0.00,221,Wunderground v.1.15,2013-01-23 19:05:00,
2013-01-23 14:10:00,17.0,8.6,30.17,SSW,209,4.0,4.0,69,0.00,,,0.00,211,Wunderground v.1.15,2013-01-23 19:10:00,
2013-01-23 14:15:00,17.3,8.9,30.17,SSW,208,5.0,8.0,69,0.00,,,0.00,179,Wunderground v.1.15,2013-01-23 19:15:00,
2013-01-23 14:20:00,17.1,8.0,30.17,SSW,209,4.0,6.0,67,0.00,,,0.00,183,Wunderground v.1.15,2013-01-23 19:20:00,
2013-01-23 14:25:00,17.2,8.4,30.17,WSW,238,3.0,7.0,68,0.00,,,0.00,165,Wunderground v.1.15,2013-01-23 19:25:00,
2013-01-23 14:30:00,17.1,8.0,30.17,WSW,238,4.0,4.0,67,0.00,,,0.00,174,Wunderground v.1.15,2013-01-23 19:30:00,
2013-01-23 14:35:00,17.1,8.0,30.17,WNW,284,1.0,9.0,67,0.00,,,0.00,181,Wunderground v.1.15,2013-01-23 19:35:00,
2013-01-23 14:41:00,17.4,8.3,30.16,SSW,207,7.0,7.0,67,0.00,,,0.00,195,Wunderground v.1.15,2013-01-23 19:41:00,
2013-01-23 14:46:00,17.3,8.2,30.16,South,188,3.0,9.0,67,0.00,,,0.00,199,Wunderground v.1.15,2013-01-23 19:46:00,
2013-01-23 14:51:00,17.3,7.5,30.16,WSW,250,4.0,7.0,65,0.00,,,0.00,165,Wunderground v.1.15,2013-01-23 19:51:00,
2013-01-23 14:56:00,17.2,7.8,30.16,SW,219,4.0,10.0,66,0.00,,,0.00,183,Wunderground v.1.15,2013-01-23 19:56:00,
2013-01-23 15:00:00,17.0,7.3,30.14,SSW,202,5.0,16.0,65,0.00,,,-99.99,88,WeatherLink 6.0.0,2013-01-23 20:00:00,
2013-01-23 15:01:00,17.4,7.6,30.16,SSW,213,2.0,6.0,65,0.00,,,0.00,188,Wunderground v.1.15,2013-01-23 20:01:00,
2013-01-23 15:06:00,17.4,7.6,30.16,West,269,4.0,10.0,65,0.00,,,0.00,144,Wunderground v.1.15,2013-01-23 20:06:00,
2013-01-23 15:11:00,17.3,7.5,30.16,South,183,6.0,9.0,65,0.00,,,0.00,162,Wunderground v.1.15,2013-01-23 20:11:00,
2013-01-23 15:16:00,17.4,7.6,30.16,WSW,238,4.0,10.0,65,0.00,,,0.00,127,Wunderground v.1.15,2013-01-23 20:16:00,
2013-01-23 15:21:00,17.5,7.7,30.15,SW,223,3.0,5.0,65,0.00,,,0.00,149,Wunderground v.1.15,2013-01-23 20:21:00,
2013-01-23 15:26:00,17.5,7.4,30.15,WSW,240,5.0,8.0,64,0.00,,,0.00,137,Wunderground v.1.15,2013-01-23 20:26:00,
2013-01-23 15:30:00,17.0,6.9,30.13,SSW,202,4.0,13.0,64,0.00,,,-99.99,82,WeatherLink 6.0.0,2013-01-23 20:30:00,
2013-01-23 15:31:00,17.3,7.2,30.15,SW,216,4.0,10.0,64,0.00,,,0.00,90,Wunderground v.1.15,2013-01-23 20:31:00,
2013-01-23 15:36:00,17.2,7.1,30.15,SW,216,3.0,11.0,64,0.00,,,0.00,116,Wunderground v.1.15,2013-01-23 20:36:00,
2013-01-23 15:41:00,17.2,7.4,30.15,SSW,209,4.0,8.0,65,0.00,,,0.00,77,Wunderground v.1.15,2013-01-23 20:41:00,
2013-01-23 15:46:00,17.1,7.0,30.15,South,186,8.0,10.0,64,0.00,,,0.00,79,Wunderground v.1.15,2013-01-23 20:46:00,
2013-01-23 15:51:00,16.9,7.2,30.15,SSW,198,5.0,6.0,65,0.00,,,0.00,98,Wunderground v.1.15,2013-01-23 20:51:00,
2013-01-23 15:56:00,16.8,7.1,30.14,West,263,5.0,16.0,65,0.00,,,0.00,74,Wunderground v.1.15,2013-01-23 20:56:00,
2013-01-23 16:00:00,16.7,8.0,30.13,SSW,202,5.0,15.0,68,0.00,,,-99.99,52,WeatherLink 6.0.0,2013-01-23 21:00:00,
2013-01-23 16:01:00,16.8,7.1,30.14,SW,216,3.0,9.0,65,0.00,,,0.00,79,Wunderground v.1.15,2013-01-23 21:01:00,
2013-01-23 16:06:00,16.9,7.2,30.14,SW,234,5.0,9.0,65,0.00,,,0.00,81,Wunderground v.1.15,2013-01-23 21:06:00,
2013-01-23 16:11:00,17.0,7.3,30.13,SSW,195,5.0,9.0,65,0.00,,,0.00,104,Wunderground v.1.15,2013-01-23 21:11:00,
2013-01-23 16:16:00,17.1,7.7,30.13,WSW,246,4.0,10.0,66,0.00,,,0.00,97,Wunderground v.1.15,2013-01-23 21:16:00,
2013-01-23 16:21:00,17.2,7.4,30.14,SSW,196,7.0,7.0,65,0.00,,,0.00,79,Wunderground v.1.15,2013-01-23 21:21:00,
2013-01-23 16:26:00,17.2,7.4,30.13,WSW,239,7.0,11.0,65,0.00,,,0.00,69,Wunderground v.1.15,2013-01-23 21:26:00,
2013-01-23 16:30:00,16.1,7.7,30.12,SSW,202,5.0,14.0,69,0.00,,,-99.99,25,WeatherLink 6.0.0,2013-01-23 21:30:00,
2013-01-23 16:31:00,16.8,7.1,30.14,WSW,240,3.0,6.0,65,0.00,,,0.00,56,Wunderground v.1.15,2013-01-23 21:31:00,
2013-01-23 16:36:00,16.7,7.0,30.13,SW,221,3.0,8.0,65,0.00,,,0.00,67,Wunderground v.1.15,2013-01-23 21:36:00,
2013-01-23 16:41:00,16.8,7.4,30.13,SSW,207,6.0,6.0,66,0.00,,,0.00,56,Wunderground v.1.15,2013-01-23 21:41:00,
2013-01-23 16:46:00,16.7,7.3,30.13,South,169,8.0,15.0,66,0.00,,,0.00,53,Wunderground v.1.15,2013-01-23 21:46:00,
2013-01-23 16:51:00,16.7,7.6,30.13,SSW,201,4.0,9.0,67,0.00,,,0.00,47,Wunderground v.1.15,2013-01-23 21:51:00,
2013-01-23 16:56:00,16.5,7.8,30.13,WSW,250,5.0,11.0,68,0.00,,,0.00,40,Wunderground v.1.15,2013-01-23 21:56:00,
2013-01-23 17:00:00,15.5,7.5,30.13,SSW,202,3.0,8.0,70,0.00,,,-99.99,2,WeatherLink 6.0.0,2013-01-23 22:00:00,
2013-01-23 17:01:00,16.5,7.8,30.13,SSE,166,4.0,7.0,68,0.00,,,0.00,47,Wunderground v.1.15,2013-01-23 22:01:00,
2013-01-23 17:06:00,16.3,7.6,30.13,SSW,205,2.0,14.0,68,0.00,,,0.00,37,Wunderground v.1.15,2013-01-23 22:06:00,
2013-01-23 17:11:00,16.1,7.4,30.13,SSW,210,2.0,5.0,68,0.00,,,0.00,33,Wunderground v.1.15,2013-01-23 22:11:00,
2013-01-23 17:16:00,16.0,7.3,30.13,South,182,3.0,8.0,68,0.00,,,0.00,23,Wunderground v.1.15,2013-01-23 22:16:00,
2013-01-23 17:22:00,15.9,7.2,30.12,South,185,8.0,8.0,68,0.00,,,0.00,14,Wunderground v.1.15,2013-01-23 22:22:00,
2013-01-23 17:27:00,15.8,7.1,30.12,SSW,207,5.0,12.0,68,0.00,,,0.00,12,Wunderground v.1.15,2013-01-23 22:27:00,
2013-01-23 17:30:00,15.4,7.7,30.14,SSW,202,3.0,6.0,71,0.00,,,-99.99,0,WeatherLink 6.0.0,2013-01-23 22:30:00,
2013-01-23 17:32:00,15.6,7.2,30.13,SSW,196,5.0,6.0,69,0.00,,,0.00,7,Wunderground v.1.15,2013-01-23 22:32:00,
2013-01-23 17:37:00,15.5,7.1,30.13,South,187,2.0,8.0,69,0.00,,,0.00,5,Wunderground v.1.15,2013-01-23 22:37:00,
2013-01-23 17:42:00,15.4,7.7,30.13,SW,215,3.0,5.0,71,0.00,,,0.00,0,Wunderground v.1.15,2013-01-23 22:42:00,
2013-01-23 17:47:00,15.4,7.4,30.13,SW,220,2.0,8.0,70,0.00,,,0.00,0,Wunderground v.1.15,2013-01-23 22:47:00,
2013-01-23 17:52:00,15.5,7.5,30.13,SW,223,0.0,4.0,70,0.00,,,0.00,0,Wunderground v.1.15,2013-01-23 22:52:00,
2013-01-23 17:57:00,15.5,7.5,30.13,South,191,2.0,6.0,70,0.00,,,0.00,0,Wunderground v.1.15,2013-01-23 22:57:00,
2013-01-23 18:00:00,15.3,7.6,30.13,SSW,202,3.0,6.0,71,0.00,,,-99.99,0,WeatherLink 6.0.0,2013-01-23 23:00:00,
2013-01-23 18:02:00,15.5,7.5,30.13,SSW,195,2.0,5.0,70,0.00,,,0.00,0,Wunderground v.1.15,2013-01-23 23:02:00,
2013-01-23 18:07:00,15.4,7.4,30.13,SSW,201,2.0,6.0,70,0.00,,,0.00,0,Wunderground v.1.15,2013-01-23 23:07:00,
2013-01-23 18:12:00,15.4,7.4,30.13,SSW,200,1.0,4.0,70,0.00,,,0.00,0,Wunderground v.1.15,2013-01-23 23:12:00,
2013-01-23 18:17:00,15.4,7.4,30.13,South,184,4.0,6.0,70,0.00,,,0.00,0,Wunderground v.1.15,2013-01-23 23:17:00,
2013-01-23 18:22:00,15.4,7.4,30.13,SW,221,3.0,6.0,70,0.00,,,0.00,0,Wunderground v.1.15,2013-01-23 23:22:00,
2013-01-23 18:27:00,15.3,7.3,30.13,SW,232,1.0,6.0,70,0.00,,,0.00,0,Wunderground v.1.15,2013-01-23 23:27:00,
2013-01-23 18:30:00,15.2,7.5,30.13,SW,225,2.0,8.0,71,0.00,,,-99.99,0,WeatherLink 6.0.0,2013-01-23 23:30:00,
2013-01-23 18:32:00,15.3,7.6,30.13,West,266,3.0,5.0,71,0.00,,,0.00,0,Wunderground v.1.15,2013-01-23 23:32:00,
2013-01-23 18:37:00,15.3,7.3,30.13,SW,215,2.0,5.0,70,0.00,,,0.00,0,Wunderground v.1.15,2013-01-23 23:37:00,
2013-01-23 18:42:00,15.3,7.6,30.13,South,184,1.0,4.0,71,0.00,,,0.00,0,Wunderground v.1.15,2013-01-23 23:42:00,
2013-01-23 18:47:00,15.3,7.6,30.13,SSW,194,0.0,6.0,71,0.00,,,0.00,0,Wunderground v.1.15,2013-01-23 23:47:00,
2013-01-23 18:52:00,15.3,7.6,30.13,WSW,244,2.0,5.0,71,0.00,,,0.00,0,Wunderground v.1.15,2013-01-23 23:52:00,
2013-01-23 18:57:00,15.3,7.6,30.13,SW,229,2.0,5.0,71,0.00,,,0.00,0,Wunderground v.1.15,2013-01-23 23:57:00,
2013-01-23 19:00:00,14.9,8.1,30.12,SW,225,1.0,5.0,74,0.00,,,-99.99,0,WeatherLink 6.0.0,2013-01-24 00:00:00,
2013-01-23 19:02:00,15.3,7.6,30.13,South,187,2.0,5.0,71,0.00,,,0.00,0,Wunderground v.1.15,2013-01-24 00:02:00,
2013-01-23 19:07:00,15.3,7.6,30.13,SSW,208,1.0,5.0,71,0.00,,,0.00,0,Wunderground v.1.15,2013-01-24 00:07:00,
2013-01-23 19:12:00,15.2,7.2,30.13,South,181,0.0,5.0,70,0.00,,,0.00,0,Wunderground v.1.15,2013-01-24 00:12:00,
2013-01-23 19:17:00,15.1,7.1,30.13,SW,221,1.0,5.0,70,0.00,,,0.00,0,Wunderground v.1.15,2013-01-24 00:17:00,
2013-01-23 19:22:00,15.1,7.4,30.13,SW,232,4.0,4.0,71,0.00,,,0.00,0,Wunderground v.1.15,2013-01-24 00:22:00,
2013-01-23 19:27:00,15.0,7.3,30.13,WSW,250,1.0,6.0,71,0.00,,,0.00,0,Wunderground v.1.15,2013-01-24 00:27:00,
2013-01-23 19:30:00,14.6,8.1,30.12,South,180,2.0,5.0,75,0.00,,,-99.99,0,WeatherLink 6.0.0,2013-01-24 00:30:00,
2013-01-23 19:32:00,15.0,7.3,30.12,SW,215,1.0,5.0,71,0.00,,,0.00,0,Wunderground v.1.15,2013-01-24 00:32:00,
2013-01-23 19:37:00,15.0,7.6,30.13,SW,219,1.0,5.0,72,0.00,,,0.00,0,Wunderground v.1.15,2013-01-24 00:37:00,
2013-01-23 19:42:00,14.9,7.5,30.13,SW,219,2.0,3.0,72,0.00,,,0.00,0,Wunderground v.1.15,2013-01-24 00:42:00,
2013-01-23 19:47:00,14.9,7.5,30.12,WSW,256,1.0,3.0,72,0.00,,,0.00,0,Wunderground v.1.15,2013-01-24 00:47:00,
2013-01-23 19:52:00,14.9,7.8,30.12,SW,233,0.0,3.0,73,0.00,,,0.00,0,Wunderground v.1.15,2013-01-24 00:52:00,
2013-01-23 19:57:00,14.8,7.7,30.12,SW,232,0.0,4.0,73,0.00,,,0.00,0,Wunderground v.1.15,2013-01-24 00:57:00,
2013-01-23 20:00:00,14.3,8.7,30.12,SSW,202,1.0,5.0,78,0.00,,,-99.99,0,WeatherLink 6.0.0,2013-01-24 01:00:00,
2013-01-23 20:02:00,14.8,8.3,30.12,SW,232,1.0,4.0,75,0.00,,,0.00,0,Wunderground v.1.15,2013-01-24 01:02:00,
2013-01-23 20:07:00,14.8,8.3,30.12,SW,232,1.0,4.0,75,0.00,,,0.00,0,Wunderground v.1.15,2013-01-24 01:07:00,
2013-01-23 20:12:00,14.7,8.2,30.12,SSW,202,0.0,4.0,75,0.00,,,0.00,0,Wunderground v.1.15,2013-01-24 01:12:00,
2013-01-23 20:17:00,14.6,8.1,30.12,South,178,1.0,4.0,75,0.00,,,0.00,0,Wunderground v.1.15,2013-01-24 01:17:00,
2013-01-23 20:22:00,14.5,8.0,30.12,South,188,2.0,3.0,75,0.00,,,0.00,0,Wunderground v.1.15,2013-01-24 01:22:00,
2013-01-23 20:27:00,14.5,8.0,30.12,SSW,207,2.0,4.0,75,0.00,,,0.00,0,Wunderground v.1.15,2013-01-24 01:27:00,
2013-01-23 20:30:00,13.9,9.1,30.12,SW,225,1.0,4.0,81,0.00,,,-99.99,0,WeatherLink 6.0.0,2013-01-24 01:30:00,
2013-01-23 20:32:00,14.5,8.3,30.12,SSW,207,1.0,2.0,76,0.00,,,0.00,0,Wunderground v.1.15,2013-01-24 01:32:00,
2013-01-23 20:37:00,14.5,8.3,30.12,SSW,205,0.0,5.0,76,0.00,,,0.00,0,Wunderground v.1.15,2013-01-24 01:37:00,
2013-01-23 20:42:00,14.4,8.2,30.12,SSW,210,3.0,5.0,76,0.00,,,0.00,0,Wunderground v.1.15,2013-01-24 01:42:00,
2013-01-23 20:47:00,14.3,8.1,30.12,South,185,0.0,5.0,76,0.00,,,0.00,0,Wunderground v.1.15,2013-01-24 01:47:00,
2013-01-23 20:52:00,14.1,7.9,30.12,SSW,194,2.0,4.0,76,0.00,,,0.00,0,Wunderground v.1.15,2013-01-24 01:52:00,
2013-01-23 20:57:00,14.0,8.1,30.12,SSW,194,0.0,4.0,77,0.00,,,0.00,0,Wunderground v.1.15,2013-01-24 01:57:00,
2013-01-23 21:00:00,13.8,9.6,30.12,SW,225,1.0,4.0,83,0.00,,,-99.99,0,WeatherLink 6.0.0,2013-01-24 02:00:00,
2013-01-23 21:02:00,13.9,8.3,30.12,SSW,194,0.0,1.0,78,0.00,,,0.00,0,Wunderground v.1.15,2013-01-24 02:02:00,
2013-01-23 21:07:00,13.9,8.3,30.12,SSW,194,0.0,2.0,78,0.00,,,0.00,0,Wunderground v.1.15,2013-01-24 02:07:00,
2013-01-23 21:12:00,13.9,8.6,30.12,SSW,213,3.0,3.0,79,0.00,,,0.00,0,Wunderground v.1.15,2013-01-24 02:12:00,
2013-01-23 21:17:00,13.9,8.6,30.12,SW,217,2.0,4.0,79,0.00,,,0.00,0,Wunderground v.1.15,2013-01-24 02:17:00,
2013-01-23 21:22:00,13.9,8.9,30.12,SW,221,1.0,3.0,80,0.00,,,0.00,0,Wunderground v.1.15,2013-01-24 02:22:00,
2013-01-23 21:27:00,13.9,9.1,30.12,SW,221,1.0,4.0,81,0.00,,,0.00,0,Wunderground v.1.15,2013-01-24 02:27:00,
2013-01-23 21:30:00,14.0,10.3,30.12,SW,225,0.0,2.0,85,0.00,,,-99.99,0,WeatherLink 6.0.0,2013-01-24 02:30:00,
2013-01-23 21:32:00,13.9,9.1,30.12,SW,221,1.0,1.0,81,0.00,,,0.00,0,Wunderground v.1.15,2013-01-24 02:32:00,
2013-01-23 21:37:00,13.9,9.1,30.12,SW,221,1.0,3.0,81,0.00,,,0.00,0,Wunderground v.1.15,2013-01-24 02:37:00,
2013-01-23 21:42:00,13.8,9.3,30.12,SW,221,2.0,3.0,82,0.00,,,0.00,0,Wunderground v.1.15,2013-01-24 02:42:00,
2013-01-23 21:47:00,13.8,9.3,30.12,SW,221,2.0,3.0,82,0.00,,,0.00,0,Wunderground v.1.15,2013-01-24 02:47:00,
2013-01-23 21:52:00,13.8,9.6,30.12,SW,221,1.0,3.0,83,0.00,,,0.00,0,Wunderground v.1.15,2013-01-24 02:52:00,
2013-01-23 21:57:00,13.8,9.6,30.12,SW,221,1.0,3.0,83,0.00,,,0.00,0,Wunderground v.1.15,2013-01-24 02:57:00,
2013-01-23 22:00:00,14.1,10.4,30.13,SW,225,0.0,4.0,85,0.00,,,-99.99,0,WeatherLink 6.0.0,2013-01-24 03:00:00,
2013-01-23 22:02:00,13.8,9.6,30.12,SW,221,0.0,2.0,83,0.00,,,0.00,0,Wunderground v.1.15,2013-01-24 03:02:00,
2013-01-23 22:07:00,13.8,9.9,30.12,SW,221,0.0,2.0,84,0.00,,,0.00,0,Wunderground v.1.15,2013-01-24 03:07:00,
2013-01-23 22:12:00,13.9,10.0,30.12,SW,221,0.0,1.0,84,0.00,,,0.00,0,Wunderground v.1.15,2013-01-24 03:12:00,
2013-01-23 22:17:00,14.0,10.3,30.12,SW,221,0.0,2.0,85,0.00,,,0.00,0,Wunderground v.1.15,2013-01-24 03:17:00,
2013-01-23 22:22:00,14.1,10.4,30.13,SW,221,0.0,2.0,85,0.00,,,0.00,0,Wunderground v.1.15,2013-01-24 03:22:00,
2013-01-23 22:27:00,14.2,10.5,30.13,SW,221,0.0,2.0,85,0.00,,,0.00,0,Wunderground v.1.15,2013-01-24 03:27:00,
2013-01-23 22:30:00,13.8,10.1,30.14,NW,315,1.0,3.0,85,0.00,,,-99.99,0,WeatherLink 6.0.0,2013-01-24 03:30:00,
2013-01-23 22:32:00,14.1,10.4,30.12,SW,221,0.0,0.0,85,0.00,,,0.00,0,Wunderground v.1.15,2013-01-24 03:32:00,
2013-01-23 22:37:00,14.1,10.4,30.12,SW,221,0.0,0.0,85,0.00,,,0.00,0,Wunderground v.1.15,2013-01-24 03:37:00,
2013-01-23 22:42:00,14.1,10.4,30.12,SW,221,0.0,2.0,85,0.00,,,0.00,0,Wunderground v.1.15,2013-01-24 03:42:00,
2013-01-23 22:47:00,14.1,10.4,30.12,SW,221,0.0,2.0,85,0.00,,,0.00,0,Wunderground v.1.15,2013-01-24 03:47:00,
2013-01-23 22:52:00,14.1,10.4,30.12,SW,221,0.0,1.0,85,0.00,,,0.00,0,Wunderground v.1.15,2013-01-24 03:52:00,
2013-01-23 22:57:00,14.0,10.3,30.13,NW,317,1.0,4.0,85,0.00,,,0.00,0,Wunderground v.1.15,2013-01-24 03:57:00,
2013-01-23 23:00:00,13.2,9.5,30.15,NW,315,1.0,6.0,85,0.00,,,-99.99,0,WeatherLink 6.0.0,2013-01-24 04:00:00,
2013-01-23 23:02:00,14.0,10.3,30.13,NW,317,2.0,2.0,85,0.00,,,0.00,0,Wunderground v.1.15,2013-01-24 04:02:00,
2013-01-23 23:07:00,13.9,10.2,30.13,NW,317,2.0,3.0,85,0.00,,,0.00,0,Wunderground v.1.15,2013-01-24 04:07:00,
2013-01-23 23:12:00,13.9,10.2,30.13,NW,317,1.0,2.0,85,0.00,,,0.00,0,Wunderground v.1.15,2013-01-24 04:12:00,
2013-01-23 23:17:00,13.8,10.1,30.13,NW,317,0.0,3.0,85,0.00,,,0.00,0,Wunderground v.1.15,2013-01-24 04:17:00,
2013-01-23 23:22:00,13.7,10.0,30.13,NW,317,1.0,2.0,85,0.00,,,0.00,0,Wunderground v.1.15,2013-01-24 04:22:00,
2013-01-23 23:27:00,13.6,9.9,30.14,NW,317,1.0,3.0,85,0.00,,,0.00,0,Wunderground v.1.15,2013-01-24 04:27:00,
2013-01-23 23:30:00,12.8,9.1,30.16,West,270,2.0,8.0,85,0.00,,,-99.99,0,WeatherLink 6.0.0,2013-01-24 04:30:00,
2013-01-23 23:32:00,13.5,9.8,30.14,NW,317,3.0,3.0,85,0.00,,,0.00,0,Wunderground v.1.15,2013-01-24 04:32:00,
2013-01-23 23:37:00,13.4,9.7,30.14,NW,317,0.0,4.0,85,0.00,,,0.00,0,Wunderground v.1.15,2013-01-24 04:37:00,
2013-01-23 23:42:00,13.3,9.6,30.14,NW,317,3.0,3.0,85,0.00,,,0.00,0,Wunderground v.1.15,2013-01-24 04:42:00,
2013-01-23 23:47:00,13.1,9.4,30.15,NW,309,2.0,4.0,85,0.00,,,0.00,0,Wunderground v.1.15,2013-01-24 04:47:00,
2013-01-23 23:52:00,13.0,9.3,30.15,NW,306,1.0,4.0,85,0.00,,,0.00,0,Wunderground v.1.15,2013-01-24 04:52:00,
2013-01-23 23:57:00,13.0,9.3,30.15,WNW,299,2.0,6.0,85,0.00,,,0.00,0,Wunderground v.1.15,2013-01-24 04:57:00,